UAL2432 KJFK-KCLE

Flight info

Callsign UAL2432
Flight time 1h 30m
Altitude 32000
Route DEEZZ6 CANDR J60 PSB UPPRR TRYBE4
Aircraft B739/M-SDE2E3FGHIRWXY/LB1

Departure

Time 2026-05-07 01:41
Airport John F. Kennedy International Airport (KJFK)

Arrival

Time 2026-05-07 03:12
Airport Cleveland Hopkins International Airport (KCLE)
Time Latitude Longitude Altitude Speed Heading
2026-05-07 01:24 40.64013 -73.78078 13 ft 0 kts 247°
2026-05-07 01:24 40.64013 -73.78077 19 ft 0 kts 247°
2026-05-07 01:30 40.64016 -73.78069 19 ft 2 kts 247°
2026-05-07 01:30 40.64023 -73.78049 20 ft 2 kts 247°
2026-05-07 01:30 40.64029 -73.78029 21 ft 2 kts 247°
2026-05-07 01:30 40.64035 -73.78010 21 ft 2 kts 247°
2026-05-07 01:31 40.64036 -73.78008 22 ft 0 kts 247°
2026-05-07 01:31 40.64039 -73.77998 21 ft 2 kts 247°
2026-05-07 01:31 40.64049 -73.77982 19 ft 2 kts 217°
2026-05-07 01:32 40.64062 -73.77969 22 ft 2 kts 217°
2026-05-07 01:32 40.64076 -73.77956 22 ft 2 kts 215°
2026-05-07 01:32 40.64081 -73.77951 20 ft 0 kts 215°
2026-05-07 01:34 40.64058 -73.77960 22 ft 3 kts 188°
2026-05-07 01:34 40.64042 -73.77961 19 ft 1 kts 173°
2026-05-07 01:34 40.64037 -73.77961 21 ft 3 kts 173°
2026-05-07 01:34 40.64008 -73.77956 19 ft 0 kts 173°
2026-05-07 01:35 40.64006 -73.77956 19 ft 5 kts 173°
2026-05-07 01:35 40.63899 -73.77939 20 ft 21 kts 173°
2026-05-07 01:35 40.63745 -73.77909 19 ft 25 kts 171°
2026-05-07 01:36 40.63598 -73.77888 19 ft 18 kts 177°
2026-05-07 01:36 40.63481 -73.77965 20 ft 18 kts 231°
2026-05-07 01:36 40.63432 -73.77961 20 ft 13 kts 90°
2026-05-07 01:36 40.63500 -73.77851 20 ft 19 kts 56°
2026-05-07 01:37 40.63550 -73.77677 19 ft 23 kts 37°
2026-05-07 01:37 40.63683 -73.77569 19 ft 22 kts 31°
2026-05-07 01:37 40.63812 -73.77466 19 ft 21 kts 31°
2026-05-07 01:37 40.63939 -73.77368 20 ft 21 kts 29°
2026-05-07 01:38 40.64063 -73.77274 20 ft 20 kts 31°
2026-05-07 01:38 40.64181 -73.77179 22 ft 20 kts 32°
2026-05-07 01:38 40.64293 -73.77087 20 ft 19 kts 30°
2026-05-07 01:38 40.64413 -73.77006 19 ft 22 kts 16°
2026-05-07 01:39 40.64578 -73.76933 19 ft 26 kts 31°
2026-05-07 01:39 40.64748 -73.76801 20 ft 28 kts 30°
2026-05-07 01:39 40.64874 -73.76702 21 ft 19 kts 31°
2026-05-07 01:39 40.64983 -73.76616 20 ft 18 kts 31°
2026-05-07 01:40 40.65087 -73.76535 22 ft 17 kts 31°
2026-05-07 01:40 40.65085 -73.76429 21 ft 13 kts 124°
2026-05-07 01:40 40.65014 -73.76371 21 ft 13 kts 189°
2026-05-07 01:40 40.64989 -73.76383 21 ft 0 kts 207°
2026-05-07 01:41 40.64806 -73.76521 21 ft 70 kts 210°
2026-05-07 01:41 40.64177 -73.77018 20 ft 138 kts 211°
2026-05-07 01:41 40.63187 -73.77800 52 ft 189 kts 210°
2026-05-07 01:41 40.62015 -73.78678 800 ft 196 kts 210°
2026-05-07 01:42 40.60775 -73.79552 1609 ft 203 kts 213°
2026-05-07 01:42 40.59504 -73.80423 2486 ft 208 kts 213°
2026-05-07 01:42 40.58208 -73.81281 3383 ft 208 kts 212°
2026-05-07 01:42 40.56933 -73.82123 4274 ft 207 kts 212°
2026-05-07 01:43 40.55509 -73.82667 5025 ft 223 kts 188°
2026-05-07 01:43 40.53948 -73.82163 5773 ft 243 kts 157°
2026-05-07 01:43 40.52565 -73.80832 6569 ft 248 kts 148°
2026-05-07 01:43 40.51471 -73.79218 7223 ft 262 kts 122°
2026-05-07 01:44 40.51115 -73.76854 7972 ft 269 kts 84°
2026-05-07 01:44 40.51774 -73.74610 8715 ft 261 kts 48°
2026-05-07 01:44 40.52870 -73.72751 9469 ft 257 kts 47°
2026-05-07 01:44 40.54013 -73.70809 9667 ft 285 kts 47°
2026-05-07 01:45 40.55353 -73.68599 9399 ft 332 kts 47°
2026-05-07 01:45 40.56866 -73.66136 9746 ft 355 kts 47°
2026-05-07 01:45 40.58475 -73.63530 10049 ft 379 kts 47°
2026-05-07 01:45 40.60192 -73.60767 10365 ft 401 kts 47°
2026-05-07 01:46 40.61997 -73.57879 10688 ft 414 kts 47°
2026-05-07 01:46 40.63837 -73.54945 11273 ft 417 kts 47°
2026-05-07 01:46 40.65682 -73.52009 11837 ft 415 kts 47°
2026-05-07 01:46 40.67519 -73.49093 12401 ft 412 kts 47°
2026-05-07 01:47 40.69323 -73.46234 12969 ft 409 kts 47°
2026-05-07 01:47 40.71138 -73.43365 13566 ft 406 kts 47°
2026-05-07 01:47 40.73034 -73.40628 14071 ft 400 kts 41°
2026-05-07 01:47 40.75055 -73.38146 14591 ft 392 kts 31°
2026-05-07 01:48 40.77415 -73.36505 15007 ft 375 kts
2026-05-07 01:48 40.79892 -73.36044 15670 ft 349 kts 351°
2026-05-07 01:48 40.82284 -73.36110 16303 ft 339 kts 348°
2026-05-07 01:48 40.84599 -73.36249 16830 ft 333 kts 347°
2026-05-07 01:49 40.86922 -73.36401 17029 ft 340 kts 347°
2026-05-07 01:49 40.89328 -73.36642 16974 ft 347 kts 340°
2026-05-07 01:49 40.91480 -73.37813 17110 ft 324 kts 311°
2026-05-07 01:49 40.92793 -73.40051 17559 ft 301 kts 285°
2026-05-07 01:50 40.93050 -73.42699 17898 ft 290 kts 258°
2026-05-07 01:50 40.92567 -73.45257 18369 ft 285 kts 261°
2026-05-07 01:50 40.92581 -73.47886 18663 ft 284 kts 274°
2026-05-07 01:50 40.92816 -73.50505 18971 ft 293 kts 273°
2026-05-07 01:51 40.93043 -73.53232 19372 ft 303 kts 273°
2026-05-07 01:51 40.93271 -73.56065 19679 ft 315 kts 273°
2026-05-07 01:51 40.93497 -73.58953 20047 ft 325 kts 273°
2026-05-07 01:51 40.93730 -73.61973 20402 ft 335 kts 273°
2026-05-07 01:52 40.93968 -73.65083 20757 ft 344 kts 273°
2026-05-07 01:52 40.94209 -73.68262 21119 ft 352 kts 273°
2026-05-07 01:52 40.94455 -73.71520 21487 ft 359 kts 273°
2026-05-07 01:52 40.94705 -73.74834 21855 ft 365 kts 273°
2026-05-07 01:53 40.94960 -73.78207 22228 ft 371 kts 273°
2026-05-07 01:53 40.95219 -73.81622 22608 ft 375 kts 273°
2026-05-07 01:53 40.95480 -73.85076 22988 ft 379 kts 273°
2026-05-07 01:53 40.95743 -73.88574 23374 ft 383 kts 273°
2026-05-07 01:54 40.96007 -73.92084 23682 ft 386 kts 273°
2026-05-07 01:54 40.96270 -73.95552 24317 ft 379 kts 273°
2026-05-07 01:54 40.96533 -73.98987 25021 ft 371 kts 273°
2026-05-07 01:54 40.96791 -74.02326 25961 ft 358 kts 273°
2026-05-07 01:55 40.97043 -74.05531 26999 ft 342 kts 273°
2026-05-07 01:55 40.97294 -74.08724 26803 ft 358 kts 273°
2026-05-07 01:55 40.97550 -74.12012 27111 ft 360 kts 273°
2026-05-07 01:55 40.97808 -74.15348 27221 ft 366 kts 273°
2026-05-07 01:56 40.98069 -74.18718 27407 ft 371 kts 273°
2026-05-07 01:56 40.98331 -74.22100 27589 ft 374 kts 273°
2026-05-07 01:56 40.98597 -74.25538 27760 ft 377 kts 273°
2026-05-07 01:56 40.98867 -74.29004 27935 ft 379 kts 273°
2026-05-07 01:57 40.99138 -74.32489 28098 ft 380 kts 274°
2026-05-07 01:57 40.99410 -74.35955 28509 ft 374 kts 274°
2026-05-07 01:57 40.99675 -74.39278 29758 ft 351 kts 274°
2026-05-07 01:57 40.99929 -74.42369 31039 ft 325 kts 274°
2026-05-07 01:58 41.00171 -74.45269 31867 ft 315 kts 274°
2026-05-07 01:58 41.00650 -74.51116 31987 ft 324 kts 274°
2026-05-07 01:59 41.01137 -74.57131 32024 ft 334 kts 274°
2026-05-07 01:59 41.01627 -74.63168 32072 ft 322 kts 274°
2026-05-07 02:00 41.02121 -74.69173 32052 ft 334 kts 274°
2026-05-07 02:00 41.02541 -74.75346 32073 ft 344 kts 272°
2026-05-07 02:01 41.02928 -74.81728 32069 ft 349 kts 272°
2026-05-07 02:01 41.03255 -74.87076 32082 ft 350 kts 272°
2026-05-07 02:02 41.03654 -74.93519 32063 ft 351 kts 272°
2026-05-07 02:02 41.04054 -74.99980 32048 ft 352 kts 272°
2026-05-07 02:03 41.04452 -75.06441 32075 ft 351 kts 272°
2026-05-07 02:03 41.04848 -75.12905 32113 ft 351 kts 272°
2026-05-07 02:04 41.05239 -75.19367 32058 ft 352 kts 272°
2026-05-07 02:04 41.05627 -75.25827 32102 ft 351 kts 272°
2026-05-07 02:05 41.06011 -75.32276 32094 ft 351 kts 272°
2026-05-07 02:05 41.06389 -75.38689 32074 ft 351 kts 272°
2026-05-07 02:06 41.06763 -75.45140 32105 ft 351 kts 272°
2026-05-07 02:06 41.07136 -75.51590 32074 ft 352 kts 272°
2026-05-07 02:07 41.07506 -75.58047 32083 ft 351 kts 272°
2026-05-07 02:07 41.08053 -75.67728 32068 ft 352 kts 272°
2026-05-07 02:08 41.08414 -75.74192 32117 ft 351 kts 271°
2026-05-07 02:08 41.08770 -75.80647 32139 ft 351 kts 271°
2026-05-07 02:09 41.09123 -75.87103 32167 ft 350 kts 271°
2026-05-07 02:09 41.09470 -75.93556 32174 ft 350 kts 271°
2026-05-07 02:10 41.09816 -76.00001 32125 ft 351 kts 271°
2026-05-07 02:10 41.10156 -76.06410 32120 ft 351 kts 271°
2026-05-07 02:11 41.10495 -76.12860 32176 ft 349 kts 271°
2026-05-07 02:11 41.10829 -76.19305 32132 ft 350 kts 271°
2026-05-07 02:12 41.11160 -76.25744 32098 ft 350 kts 271°
2026-05-07 02:12 41.11486 -76.32180 32148 ft 349 kts 271°
2026-05-07 02:13 41.11807 -76.38584 32063 ft 350 kts 271°
2026-05-07 02:13 41.12126 -76.45018 32095 ft 349 kts 271°
2026-05-07 02:14 41.12442 -76.51446 32096 ft 349 kts 271°
2026-05-07 02:14 41.12753 -76.57872 32090 ft 348 kts 271°
2026-05-07 02:15 41.13064 -76.64282 32126 ft 348 kts 270°
2026-05-07 02:15 41.13364 -76.70655 32111 ft 349 kts 270°
2026-05-07 02:16 41.13664 -76.77086 32119 ft 349 kts 270°
2026-05-07 02:16 41.13961 -76.83507 32135 ft 348 kts 270°
2026-05-07 02:17 41.14252 -76.89893 32150 ft 348 kts 270°
2026-05-07 02:17 41.14542 -76.96304 32145 ft 348 kts 270°
2026-05-07 02:18 41.14828 -77.02723 32140 ft 347 kts 270°
2026-05-07 02:18 41.15110 -77.09112 32164 ft 346 kts 270°
2026-05-07 02:19 41.15387 -77.15493 32081 ft 348 kts 270°
2026-05-07 02:19 41.15659 -77.21857 32084 ft 347 kts 270°
2026-05-07 02:20 41.15930 -77.28246 32123 ft 346 kts 270°
2026-05-07 02:20 41.16197 -77.34629 32135 ft 346 kts 270°
2026-05-07 02:21 41.16458 -77.40972 32098 ft 346 kts 270°
2026-05-07 02:21 41.16718 -77.47352 32117 ft 346 kts 270°
2026-05-07 02:22 41.16976 -77.53743 32135 ft 346 kts 270°
2026-05-07 02:22 41.17224 -77.60112 32108 ft 346 kts 270°
2026-05-07 02:23 41.17474 -77.66479 32110 ft 345 kts 270°
2026-05-07 02:23 41.17717 -77.72789 32137 ft 344 kts 269°
2026-05-07 02:24 41.17958 -77.79135 32156 ft 343 kts 269°
2026-05-07 02:24 41.18195 -77.85472 32141 ft 343 kts 269°
2026-05-07 02:25 41.18429 -77.91813 32135 ft 344 kts 269°
2026-05-07 02:25 41.18660 -77.98123 32140 ft 344 kts 269°
2026-05-07 02:26 41.18886 -78.04462 32134 ft 344 kts 269°
2026-05-07 02:26 41.19108 -78.10801 32141 ft 343 kts 269°
2026-05-07 02:27 41.19326 -78.17120 32148 ft 343 kts 269°
2026-05-07 02:27 41.19541 -78.23434 32163 ft 342 kts 269°
2026-05-07 02:28 41.19753 -78.29743 32138 ft 342 kts 269°
2026-05-07 02:28 41.19961 -78.36044 32134 ft 342 kts 269°
2026-05-07 02:29 41.20163 -78.42294 32167 ft 340 kts 269°
2026-05-07 02:29 41.20364 -78.48579 32172 ft 340 kts 269°
2026-05-07 02:30 41.20561 -78.54876 32138 ft 341 kts 269°
2026-05-07 02:30 41.20757 -78.61167 32158 ft 340 kts 269°
2026-05-07 02:31 41.20945 -78.67394 32156 ft 339 kts 269°
2026-05-07 02:31 41.21130 -78.73654 32125 ft 339 kts 269°
2026-05-07 02:32 41.21312 -78.79902 32164 ft 338 kts 269°
2026-05-07 02:32 41.21492 -78.86147 32121 ft 338 kts 269°
2026-05-07 02:33 41.21667 -78.92376 32165 ft 336 kts 269°
2026-05-07 02:33 41.21837 -78.98585 32142 ft 337 kts 268°
2026-05-07 02:34 41.22004 -79.04683 31832 ft 325 kts 268°
2026-05-07 02:34 41.22084 -79.07632 31601 ft 314 kts 268°
2026-05-07 02:34 41.22161 -79.10516 31270 ft 310 kts 268°
2026-05-07 02:35 41.22235 -79.13359 30987 ft 306 kts 268°
2026-05-07 02:35 41.22308 -79.16175 30716 ft 304 kts 268°
2026-05-07 02:35 41.22380 -79.18977 30421 ft 302 kts 268°
2026-05-07 02:35 41.22450 -79.21762 30166 ft 300 kts 268°
2026-05-07 02:36 41.22519 -79.24533 29833 ft 300 kts 267°
2026-05-07 02:36 41.22586 -79.27259 29516 ft 299 kts 267°
2026-05-07 02:36 41.22655 -79.30019 29144 ft 300 kts 267°
2026-05-07 02:36 41.22722 -79.32795 28773 ft 300 kts 267°
2026-05-07 02:37 41.22788 -79.35572 28477 ft 299 kts 267°
2026-05-07 02:37 41.22854 -79.38338 28154 ft 299 kts 267°
2026-05-07 02:37 41.22922 -79.41106 27860 ft 299 kts 267°
2026-05-07 02:37 41.22986 -79.43832 27542 ft 298 kts 267°
2026-05-07 02:38 41.23049 -79.46585 27237 ft 298 kts 267°
2026-05-07 02:38 41.23111 -79.49330 26937 ft 297 kts 267°
2026-05-07 02:38 41.23173 -79.52068 26642 ft 296 kts 267°
2026-05-07 02:38 41.23234 -79.54807 26327 ft 295 kts 267°
2026-05-07 02:39 41.23295 -79.57531 26047 ft 295 kts 267°
2026-05-07 02:39 41.23355 -79.60249 25743 ft 294 kts 267°
2026-05-07 02:39 41.23413 -79.62927 25475 ft 293 kts 267°
2026-05-07 02:39 41.23471 -79.65632 25184 ft 293 kts 267°
2026-05-07 02:40 41.23528 -79.68339 24894 ft 293 kts 267°
2026-05-07 02:40 41.23585 -79.71052 24625 ft 292 kts 267°
2026-05-07 02:40 41.23642 -79.73762 24333 ft 293 kts 267°
2026-05-07 02:40 41.23698 -79.76458 24090 ft 292 kts 267°
2026-05-07 02:41 41.23753 -79.79124 24072 ft 292 kts 267°
2026-05-07 02:41 41.23807 -79.81828 24015 ft 291 kts 267°
2026-05-07 02:41 41.23861 -79.84513 24040 ft 290 kts 267°
2026-05-07 02:41 41.23914 -79.87198 24004 ft 292 kts 267°
2026-05-07 02:42 41.23966 -79.89893 24035 ft 292 kts 267°
2026-05-07 02:42 41.24018 -79.92553 24023 ft 282 kts 267°
2026-05-07 02:42 41.24069 -79.95119 24002 ft 274 kts 267°
2026-05-07 02:42 41.24117 -79.97635 24036 ft 271 kts 267°
2026-05-07 02:43 41.24162 -80.00149 24012 ft 273 kts 267°
2026-05-07 02:43 41.24208 -80.02672 24046 ft 273 kts 267°
2026-05-07 02:43 41.24254 -80.05201 24014 ft 275 kts 267°
2026-05-07 02:43 41.24299 -80.07709 24038 ft 275 kts 267°
2026-05-07 02:44 41.24343 -80.10272 23718 ft 279 kts 267°
2026-05-07 02:44 41.24412 -80.12831 23486 ft 276 kts 270°
2026-05-07 02:44 41.24830 -80.15358 23095 ft 282 kts 279°
2026-05-07 02:44 41.25507 -80.17795 22816 ft 282 kts 282°
2026-05-07 02:45 41.26243 -80.20221 22495 ft 283 kts 282°
2026-05-07 02:45 41.26992 -80.22643 22185 ft 283 kts 283°
2026-05-07 02:45 41.27737 -80.25068 21864 ft 283 kts 283°
2026-05-07 02:45 41.28476 -80.27490 21552 ft 283 kts 282°
2026-05-07 02:46 41.28963 -80.29096 21360 ft 283 kts 282°
2026-05-07 02:46 41.29699 -80.31531 21063 ft 284 kts 282°
2026-05-07 02:46 41.30672 -80.34770 20659 ft 285 kts 283°
2026-05-07 02:46 41.31405 -80.37215 20360 ft 285 kts 283°
2026-05-07 02:47 41.31900 -80.38873 20161 ft 286 kts 283°
2026-05-07 02:47 41.32636 -80.41335 19862 ft 286 kts 283°
2026-05-07 02:47 41.33369 -80.43790 19583 ft 286 kts 283°
2026-05-07 02:47 41.34093 -80.46220 19290 ft 286 kts 283°
2026-05-07 02:48 41.34823 -80.48672 19072 ft 284 kts 283°
2026-05-07 02:48 41.35549 -80.51111 19078 ft 283 kts 283°
2026-05-07 02:48 41.36274 -80.53554 19014 ft 283 kts 283°
2026-05-07 02:48 41.36994 -80.55981 19046 ft 281 kts 283°
2026-05-07 02:49 41.37716 -80.58419 19027 ft 282 kts 283°
2026-05-07 02:49 41.38437 -80.60851 19017 ft 284 kts 283°
2026-05-07 02:49 41.39162 -80.63304 19050 ft 283 kts 283°
2026-05-07 02:49 41.39886 -80.65755 19011 ft 285 kts 283°
2026-05-07 02:50 41.40602 -80.68177 19032 ft 284 kts 283°
2026-05-07 02:50 41.41326 -80.70640 19034 ft 284 kts 283°
2026-05-07 02:50 41.42048 -80.73101 19020 ft 285 kts 283°
2026-05-07 02:50 41.42769 -80.75562 19018 ft 285 kts 283°
2026-05-07 02:51 41.43494 -80.78044 18636 ft 289 kts 283°
2026-05-07 02:51 41.44220 -80.80522 18418 ft 285 kts 283°
2026-05-07 02:51 41.44930 -80.82949 18078 ft 283 kts 283°
2026-05-07 02:51 41.45642 -80.85384 17767 ft 281 kts 284°
2026-05-07 02:52 41.46351 -80.87815 17449 ft 280 kts 284°
2026-05-07 02:52 41.47054 -80.90230 17129 ft 279 kts 284°
2026-05-07 02:52 41.47756 -80.92642 16823 ft 278 kts 284°
2026-05-07 02:52 41.48456 -80.95050 16517 ft 278 kts 284°
2026-05-07 02:53 41.49153 -80.97448 16197 ft 278 kts 285°
2026-05-07 02:53 41.49847 -80.99836 15924 ft 272 kts 285°
2026-05-07 02:53 41.50521 -81.02150 15624 ft 264 kts 285°
2026-05-07 02:53 41.51179 -81.04418 15323 ft 259 kts 284°
2026-05-07 02:54 41.51574 -81.06691 14965 ft 254 kts 269°
2026-05-07 02:54 41.51507 -81.09042 14768 ft 255 kts 265°
2026-05-07 02:54 41.51397 -81.11435 14374 ft 260 kts 265°
2026-05-07 02:54 41.51295 -81.13827 14064 ft 258 kts 265°
2026-05-07 02:55 41.51193 -81.16230 13710 ft 258 kts 265°
2026-05-07 02:55 41.51093 -81.18614 13332 ft 258 kts 265°
2026-05-07 02:55 41.50993 -81.21002 12962 ft 257 kts 265°
2026-05-07 02:55 41.50893 -81.23386 12591 ft 258 kts 266°
2026-05-07 02:56 41.50791 -81.25780 12240 ft 257 kts 266°
2026-05-07 02:56 41.50687 -81.28097 11892 ft 251 kts 264°
2026-05-07 02:56 41.50439 -81.30371 11508 ft 246 kts 259°
2026-05-07 02:56 41.50106 -81.32618 10964 ft 247 kts 259°
2026-05-07 02:57 41.49765 -81.34858 10488 ft 246 kts 259°
2026-05-07 02:57 41.49426 -81.37102 9990 ft 247 kts 259°
2026-05-07 02:57 41.49091 -81.39356 9469 ft 247 kts 259°
2026-05-07 02:57 41.48760 -81.41600 8915 ft 247 kts 259°
2026-05-07 02:58 41.48436 -81.43818 8405 ft 246 kts 259°
2026-05-07 02:58 41.48108 -81.46067 7885 ft 246 kts 260°
2026-05-07 02:58 41.47782 -81.48314 7364 ft 246 kts 260°
2026-05-07 02:58 41.47459 -81.50537 7051 ft 242 kts 260°
2026-05-07 02:59 41.47142 -81.52723 7067 ft 244 kts 260°
2026-05-07 02:59 41.46819 -81.54938 7000 ft 240 kts 260°
2026-05-07 02:59 41.46501 -81.57120 7009 ft 240 kts 260°
2026-05-07 02:59 41.46026 -81.59262 6962 ft 244 kts 242°
2026-05-07 03:00 41.44945 -81.61003 7051 ft 246 kts 231°
2026-05-07 03:00 41.43818 -81.62745 7010 ft 248 kts 233°
2026-05-07 03:00 41.42708 -81.64508 6989 ft 249 kts 233°
2026-05-07 03:00 41.41595 -81.66276 7003 ft 248 kts 233°
2026-05-07 03:01 41.40492 -81.68019 6994 ft 248 kts 233°
2026-05-07 03:01 41.39380 -81.69771 6985 ft 247 kts 233°
2026-05-07 03:01 41.38270 -81.71514 6899 ft 248 kts 232°
2026-05-07 03:01 41.37156 -81.73260 6690 ft 246 kts 232°
2026-05-07 03:02 41.36049 -81.74992 6506 ft 245 kts 232°
2026-05-07 03:02 41.34941 -81.76724 6301 ft 246 kts 232°
2026-05-07 03:02 41.33927 -81.78547 6068 ft 245 kts 248°
2026-05-07 03:02 41.33662 -81.80746 5916 ft 239 kts 271°
2026-05-07 03:03 41.33768 -81.82933 5704 ft 241 kts 275°
2026-05-07 03:03 41.33923 -81.85158 5517 ft 241 kts 275°
2026-05-07 03:03 41.34077 -81.87380 5318 ft 240 kts 275°
2026-05-07 03:03 41.34227 -81.89545 5113 ft 229 kts 277°
2026-05-07 03:04 41.34804 -81.91441 4807 ft 222 kts 312°
2026-05-07 03:04 41.36161 -81.92305 4626 ft 223 kts 354°
2026-05-07 03:04 41.37636 -81.91669 4430 ft 235 kts 38°
2026-05-07 03:04 41.38578 -81.89864 4331 ft 241 kts 61°
2026-05-07 03:05 41.39469 -81.87935 4125 ft 246 kts 53°
2026-05-07 03:05 41.40476 -81.86101 3972 ft 243 kts 60°
2026-05-07 03:05 41.40635 -81.83922 4000 ft 256 kts 115°
2026-05-07 03:05 41.39490 -81.81979 4113 ft 278 kts 145°
2026-05-07 03:06 41.37679 -81.80987 4036 ft 297 kts 180°
2026-05-07 03:06 41.35782 -81.81738 3585 ft 285 kts 223°
2026-05-07 03:06 41.34297 -81.83655 3730 ft 314 kts 227°
2026-05-07 03:06 41.32736 -81.85866 3812 ft 332 kts 231°
2026-05-07 03:07 41.31367 -81.88322 3891 ft 326 kts 238°
2026-05-07 03:07 41.30180 -81.90801 4197 ft 307 kts 239°
2026-05-07 03:07 41.29044 -81.93066 4499 ft 282 kts 236°
2026-05-07 03:07 41.27972 -81.95115 4832 ft 256 kts 242°
2026-05-07 03:08 41.27374 -81.97207 4806 ft 238 kts 262°
2026-05-07 03:08 41.27597 -81.99284 4718 ft 226 kts 297°
2026-05-07 03:08 41.28730 -82.00752 3971 ft 231 kts 332°
2026-05-07 03:08 41.30211 -82.00872 3755 ft 212 kts 25°
2026-05-07 03:09 41.31380 -81.99748 3356 ft 202 kts 38°
2026-05-07 03:09 41.32383 -81.98503 2920 ft 195 kts 43°
2026-05-07 03:09 41.33290 -81.97171 2542 ft 195 kts 49°
2026-05-07 03:09 41.34177 -81.95761 2125 ft 201 kts 49°
2026-05-07 03:10 41.35062 -81.94364 1857 ft 198 kts 50°
2026-05-07 03:10 41.35954 -81.92968 1645 ft 196 kts 50°
2026-05-07 03:10 41.36835 -81.91604 1458 ft 194 kts 50°
2026-05-07 03:10 41.37710 -81.90237 1257 ft 195 kts 51°
2026-05-07 03:11 41.38591 -81.88844 1018 ft 196 kts 50°
2026-05-07 03:11 41.39461 -81.87474 880 ft 191 kts 51°
2026-05-07 03:11 41.40292 -81.86162 779 ft 178 kts 50°
2026-05-07 03:11 41.41022 -81.85019 788 ft 141 kts 50°
2026-05-07 03:12 41.41387 -81.84441 791 ft 24 kts 50°
2026-05-07 03:12 41.41421 -81.84386 790 ft 23 kts 50°